Time,TemperatureF,DewpointF,PressureIn,WindDirection,WindDirectionDegrees,WindSpeedMPH,WindSpeedGustMPH,Humidity,HourlyPrecipIn,Conditions,Clouds,dailyrainin,SoftwareType,DateUTC
2016-02-13 00:00:00,6.6,-4.3,30.28,North,10,9.0,10.0,60,0.00,,OVC009,0.00,VWS V15.00,2016-02-13 05:00:00,
2016-02-13 00:05:00,6.6,-4.0,30.28,WNW,292,4.0,6.0,61,0.00,,OVC009,0.00,VWS V15.00,2016-02-13 05:05:00,
2016-02-13 00:10:00,6.4,-4.2,30.28,NW,308,2.0,8.0,61,0.00,,OVC009,0.00,VWS V15.00,2016-02-13 05:10:00,
2016-02-13 00:15:00,6.3,-4.3,30.28,WNW,294,2.0,8.0,61,0.00,,OVC009,0.00,VWS V15.00,2016-02-13 05:15:00,
2016-02-13 00:20:00,6.2,-4.0,30.29,NW,305,1.0,8.0,62,0.00,,OVC009,0.00,VWS V15.00,2016-02-13 05:20:00,
2016-02-13 00:25:00,6.0,-4.2,30.29,NW,306,1.0,8.0,62,0.00,,OVC009,0.00,VWS V15.00,2016-02-13 05:25:00,
2016-02-13 00:30:00,6.0,-4.6,30.29,WNW,300,1.0,8.0,61,0.00,,OVC009,0.00,VWS V15.00,2016-02-13 05:30:00,
2016-02-13 00:35:00,5.8,-4.4,30.30,NNW,335,2.0,5.0,62,0.00,,OVC009,0.00,VWS V15.00,2016-02-13 05:35:00,
2016-02-13 00:40:00,5.7,-4.2,30.30,NNW,334,1.0,5.0,63,0.00,,OVC009,0.00,VWS V15.00,2016-02-13 05:40:00,
2016-02-13 00:45:00,5.6,-4.3,30.30,NW,304,3.0,8.0,63,0.00,,OVC009,0.00,VWS V15.00,2016-02-13 05:45:00,
2016-02-13 00:50:00,5.5,-4.3,30.30,WNW,299,3.0,8.0,63,0.00,,OVC009,0.00,VWS V15.00,2016-02-13 05:50:00,
2016-02-13 00:55:00,5.5,-4.3,30.30,NW,309,4.0,8.0,63,0.00,,OVC009,0.00,VWS V15.00,2016-02-13 05:55:00,
2016-02-13 01:00:00,5.4,-4.4,30.30,WNW,297,2.0,8.0,63,0.00,,OVC009,0.00,VWS V15.00,2016-02-13 06:00:00,
2016-02-13 01:05:00,5.3,-4.5,30.30,WNW,288,0.0,8.0,63,0.00,,OVC009,0.00,VWS V15.00,2016-02-13 06:05:00,
2016-02-13 01:10:00,5.2,-4.6,30.30,WNW,302,3.0,8.0,63,0.00,,OVC009,0.00,VWS V15.00,2016-02-13 06:10:00,
2016-02-13 01:15:00,5.1,-4.4,30.30,West,273,2.0,14.0,64,0.00,,OVC009,0.00,VWS V15.00,2016-02-13 06:15:00,
2016-02-13 01:20:00,5.0,-4.5,30.30,West,277,1.0,14.0,64,0.00,,OVC009,0.00,VWS V15.00,2016-02-13 06:20:00,
2016-02-13 01:25:00,5.0,-4.5,30.31,NW,315,3.0,14.0,64,0.00,,OVC009,0.00,VWS V15.00,2016-02-13 06:25:00,
2016-02-13 01:30:00,4.9,-4.6,30.31,West,265,2.0,14.0,64,0.00,,OVC009,0.00,VWS V15.00,2016-02-13 06:30:00,
2016-02-13 01:35:00,4.7,-4.5,30.31,NNW,338,0.0,3.0,65,0.00,,OVC009,0.00,VWS V15.00,2016-02-13 06:35:00,
2016-02-13 01:40:00,4.6,-4.6,30.32,WSW,254,2.0,3.0,65,0.00,,OVC009,0.00,VWS V15.00,2016-02-13 06:40:00,
2016-02-13 01:45:00,4.5,-4.7,30.32,WNW,298,2.0,6.0,65,0.00,,OVC009,0.00,VWS V15.00,2016-02-13 06:45:00,
2016-02-13 01:50:00,4.5,-4.7,30.32,West,280,2.0,6.0,65,0.00,,OVC009,0.00,VWS V15.00,2016-02-13 06:50:00,
2016-02-13 01:55:00,4.4,-4.8,30.32,WNW,298,1.0,6.0,65,0.00,,OVC009,0.00,VWS V15.00,2016-02-13 06:55:00,
2016-02-13 02:00:00,4.3,-4.8,30.32,NW,311,1.0,6.0,65,0.00,,OVC009,0.00,VWS V15.00,2016-02-13 07:00:00,
2016-02-13 02:05:00,4.2,-4.9,30.32,WNW,283,1.0,9.0,65,0.00,,OVC009,0.00,VWS V15.00,2016-02-13 07:05:00,
2016-02-13 02:10:00,4.1,-5.0,30.32,NW,315,2.0,9.0,65,0.00,,OVC009,0.00,VWS V15.00,2016-02-13 07:10:00,
2016-02-13 02:15:00,4.0,-5.1,30.33,WNW,294,1.0,9.0,65,0.00,,OVC009,0.00,VWS V15.00,2016-02-13 07:15:00,
2016-02-13 02:20:00,4.0,-4.8,30.33,NW,311,2.0,9.0,66,0.00,,OVC009,0.00,VWS V15.00,2016-02-13 07:20:00,
2016-02-13 02:25:00,3.8,-5.0,30.33,NW,321,1.0,9.0,66,0.00,,OVC009,0.00,VWS V15.00,2016-02-13 07:25:00,
2016-02-13 02:30:00,3.7,-5.1,30.33,NW,317,2.0,9.0,66,0.00,,OVC009,0.00,VWS V15.00,2016-02-13 07:30:00,
2016-02-13 02:35:00,3.6,-5.2,30.33,North,349,6.0,6.0,66,0.00,,OVC009,0.00,VWS V15.00,2016-02-13 07:35:00,
2016-02-13 02:40:00,3.6,-5.5,30.33,WNW,302,2.0,6.0,65,0.00,,OVC009,0.00,VWS V15.00,2016-02-13 07:40:00,
2016-02-13 02:45:00,3.5,-5.3,30.33,WNW,290,2.0,6.0,66,0.00,,OVC009,0.00,VWS V15.00,2016-02-13 07:45:00,
2016-02-13 02:50:00,3.5,-5.6,30.33,WNW,286,1.0,6.0,65,0.00,,OVC009,0.00,VWS V15.00,2016-02-13 07:50:00,
2016-02-13 02:55:00,3.3,-5.5,30.34,NNW,340,2.0,6.0,66,0.00,,OVC009,0.00,VWS V15.00,2016-02-13 07:55:00,
2016-02-13 03:00:00,3.3,-5.5,30.34,NW,313,1.0,6.0,66,0.00,,OVC009,0.00,VWS V15.00,2016-02-13 08:00:00,
2016-02-13 03:05:00,3.2,-5.6,30.34,SW,222,1.0,2.0,66,0.00,,OVC009,0.00,VWS V15.00,2016-02-13 08:05:00,
2016-02-13 03:10:00,3.1,-5.7,30.34,WSW,254,1.0,3.0,66,0.00,,OVC009,0.00,VWS V15.00,2016-02-13 08:10:00,
2016-02-13 03:25:00,2.7,-5.8,30.35,NNW,340,1.0,3.0,67,0.00,,OVC009,0.00,VWS V15.00,2016-02-13 08:25:00,
2016-02-13 03:35:00,2.4,-5.7,30.35,NW,324,0.0,2.0,68,0.00,,OVC009,0.00,VWS V15.00,2016-02-13 08:35:00,
2016-02-13 03:40:00,2.4,-5.4,30.36,NW,319,0.0,3.0,69,0.00,,OVC009,0.00,VWS V15.00,2016-02-13 08:40:00,
2016-02-13 03:45:00,2.2,-5.6,30.36,NW,319,0.0,3.0,69,0.00,,OVC009,0.00,VWS V15.00,2016-02-13 08:45:00,
2016-02-13 03:50:00,2.1,-5.4,30.36,NW,306,1.0,5.0,70,0.00,,OVC009,0.00,VWS V15.00,2016-02-13 08:50:00,
2016-02-13 04:00:00,1.9,-5.3,30.36,NW,323,1.0,6.0,71,0.00,,OVC009,0.00,VWS V15.00,2016-02-13 09:00:00,
2016-02-13 04:05:00,1.7,-5.5,30.36,WNW,300,1.0,1.0,71,0.00,,OVC009,0.00,VWS V15.00,2016-02-13 09:05:00,
2016-02-13 04:10:00,1.6,-5.6,30.36,West,259,0.0,2.0,71,0.00,,OVC009,0.00,VWS V15.00,2016-02-13 09:10:00,
2016-02-13 04:21:00,1.3,-5.6,30.37,West,275,1.0,2.0,72,0.00,,OVC009,0.00,VWS V15.00,2016-02-13 09:21:00,
2016-02-13 04:26:00,1.2,-5.4,30.36,West,269,1.0,4.0,73,0.00,,OVC009,0.00,VWS V15.00,2016-02-13 09:26:00,
2016-02-13 04:31:00,1.2,-5.4,30.36,West,271,1.0,4.0,73,0.00,,OVC009,0.00,VWS V15.00,2016-02-13 09:31:00,
2016-02-13 04:36:00,1.2,-5.4,30.37,West,259,0.0,3.0,73,0.00,,OVC009,0.00,VWS V15.00,2016-02-13 09:36:00,
2016-02-13 04:41:00,1.2,-5.4,30.37,West,269,2.0,3.0,73,0.00,,OVC009,0.00,VWS V15.00,2016-02-13 09:41:00,
2016-02-13 04:46:00,1.3,-5.3,30.38,West,265,1.0,6.0,73,0.00,,OVC009,0.00,VWS V15.00,2016-02-13 09:46:00,
2016-02-13 04:51:00,1.2,-5.4,30.38,SSW,212,0.0,6.0,73,0.00,,OVC009,0.00,VWS V15.00,2016-02-13 09:51:00,
2016-02-13 04:56:00,1.1,-5.5,30.38,SSW,213,0.0,6.0,73,0.00,,OVC009,0.00,VWS V15.00,2016-02-13 09:56:00,
2016-02-13 05:01:00,1.0,-5.6,30.38,SW,229,0.0,6.0,73,0.00,,OVC009,0.00,VWS V15.00,2016-02-13 10:01:00,
2016-02-13 05:11:00,0.9,-5.4,30.39,SW,229,1.0,2.0,74,0.00,,OVC009,0.00,VWS V15.00,2016-02-13 10:11:00,
2016-02-13 05:16:00,0.8,-5.5,30.39,SW,229,0.0,2.0,74,0.00,,OVC009,0.00,VWS V15.00,2016-02-13 10:16:00,
2016-02-13 05:21:00,0.7,-5.3,30.39,WSW,244,1.0,2.0,75,0.00,,OVC009,0.00,VWS V15.00,2016-02-13 10:21:00,
2016-02-13 05:26:00,0.6,-5.4,30.39,WSW,244,0.0,2.0,75,0.00,,OVC009,0.00,VWS V15.00,2016-02-13 10:26:00,
2016-02-13 05:31:00,0.5,-5.5,30.39,West,259,0.0,2.0,75,0.00,,OVC009,0.00,VWS V15.00,2016-02-13 10:31:00,
2016-02-13 05:36:00,0.5,-5.5,30.39,West,259,0.0,1.0,75,0.00,,OVC009,0.00,VWS V15.00,2016-02-13 10:36:00,
2016-02-13 05:41:00,0.4,-5.4,30.39,WNW,288,0.0,2.0,76,0.00,,OVC009,0.00,VWS V15.00,2016-02-13 10:41:00,
2016-02-13 05:46:00,0.3,-5.5,30.40,WNW,288,0.0,2.0,76,0.00,,OVC009,0.00,VWS V15.00,2016-02-13 10:46:00,
2016-02-13 05:51:00,0.2,-5.3,30.40,WSW,243,0.0,2.0,77,0.00,,OVC009,0.00,VWS V15.00,2016-02-13 10:51:00,
2016-02-13 05:56:00,0.2,-5.3,30.40,WSW,243,0.0,2.0,77,0.00,,OVC009,0.00,VWS V15.00,2016-02-13 10:56:00,
2016-02-13 06:01:00,0.2,-5.0,30.40,WSW,244,1.0,2.0,78,0.00,,OVC009,0.00,VWS V15.00,2016-02-13 11:01:00,
2016-02-13 06:06:00,0.2,-5.0,30.40,WSW,248,1.0,2.0,78,0.00,,OVC009,0.00,VWS V15.00,2016-02-13 11:06:00,
2016-02-13 06:16:00,0.1,-5.1,30.40,West,264,0.0,2.0,78,0.00,,OVC009,0.00,VWS V15.00,2016-02-13 11:16:00,
2016-02-13 06:21:00,-0.1,-5.1,30.41,West,264,1.0,2.0,79,0.00,,OVC009,0.00,VWS V15.00,2016-02-13 11:21:00,
2016-02-13 06:26:00,-0.2,-5.2,30.41,West,266,0.0,2.0,79,0.00,,OVC009,0.00,VWS V15.00,2016-02-13 11:26:00,
2016-02-13 06:31:00,-0.4,-5.1,30.41,West,266,0.0,2.0,80,0.00,,OVC009,0.00,VWS V15.00,2016-02-13 11:31:00,
2016-02-13 06:36:00,-0.5,-4.9,30.41,West,269,1.0,3.0,81,0.00,,OVC009,0.00,VWS V15.00,2016-02-13 11:36:00,
2016-02-13 06:41:00,-0.3,-4.2,30.41,West,278,1.0,3.0,83,0.00,,OVC009,0.00,VWS V15.00,2016-02-13 11:41:00,
2016-02-13 06:46:00,-0.1,-3.9,30.41,West,278,0.0,3.0,83,0.00,,OVC009,0.00,VWS V15.00,2016-02-13 11:46:00,
2016-02-13 06:51:00,0.1,-3.8,30.41,WSW,249,1.0,3.0,83,0.00,,OVC009,0.00,VWS V15.00,2016-02-13 11:51:00,
2016-02-13 06:56:00,0.3,-3.6,30.41,WSW,249,0.0,3.0,83,0.00,,OVC009,0.00,VWS V15.00,2016-02-13 11:56:00,
2016-02-13 07:01:00,0.4,-3.5,30.41,WSW,250,0.0,3.0,83,0.00,,OVC009,0.00,VWS V15.00,2016-02-13 12:01:00,
2016-02-13 07:06:00,0.4,-3.5,30.42,WSW,250,0.0,1.0,83,0.00,,OVC009,0.00,VWS V15.00,2016-02-13 12:06:00,
2016-02-13 07:11:00,0.3,-3.6,30.41,WSW,250,0.0,1.0,83,0.00,,OVC009,0.00,VWS V15.00,2016-02-13 12:11:00,
2016-02-13 07:16:00,0.2,-3.7,30.42,WSW,253,2.0,2.0,83,0.00,,OVC009,0.00,VWS V15.00,2016-02-13 12:16:00,
2016-02-13 07:21:00,0.2,-3.7,30.41,WSW,257,0.0,2.0,83,0.00,,OVC009,0.00,VWS V15.00,2016-02-13 12:21:00,
2016-02-13 07:26:00,0.2,-3.5,30.42,WSW,256,0.0,2.0,84,0.00,,OVC009,0.00,VWS V15.00,2016-02-13 12:26:00,
2016-02-13 07:31:00,0.2,-3.5,30.42,WSW,256,0.0,2.0,84,0.00,,OVC009,0.00,VWS V15.00,2016-02-13 12:31:00,
2016-02-13 07:36:00,0.1,-3.6,30.42,WSW,257,0.0,0.0,84,0.00,,OVC009,0.00,VWS V15.00,2016-02-13 12:36:00,
2016-02-13 07:41:00,0.1,-3.7,30.43,WSW,257,0.0,0.0,84,0.00,,OVC009,0.00,VWS V15.00,2016-02-13 12:41:00,
2016-02-13 07:46:00,-0.1,-3.8,30.43,WSW,257,0.0,0.0,84,0.00,,OVC009,0.00,VWS V15.00,2016-02-13 12:46:00,
2016-02-13 07:51:00,-0.1,-3.5,30.43,WSW,257,0.0,1.0,85,0.00,,OVC009,0.00,VWS V15.00,2016-02-13 12:51:00,
2016-02-13 07:56:00,-0.1,-3.5,30.43,WSW,256,0.0,2.0,85,0.00,,OVC009,0.00,VWS V15.00,2016-02-13 12:56:00,
2016-02-13 08:01:00,0.1,-3.1,30.43,West,261,0.0,3.0,86,0.00,,OVC009,0.00,VWS V15.00,2016-02-13 13:01:00,
2016-02-13 08:06:00,0.4,-2.8,30.43,West,261,0.0,1.0,86,0.00,,OVC009,0.00,VWS V15.00,2016-02-13 13:06:00,
2016-02-13 08:11:00,0.7,-2.5,30.43,West,261,0.0,1.0,86,0.00,,OVC009,0.00,VWS V15.00,2016-02-13 13:11:00,
2016-02-13 08:16:00,1.0,-2.2,30.43,West,261,1.0,1.0,86,0.00,,OVC009,0.00,VWS V15.00,2016-02-13 13:16:00,
2016-02-13 08:22:00,1.4,-1.8,30.43,West,261,0.0,1.0,86,0.00,,OVC009,0.00,VWS V15.00,2016-02-13 13:22:00,
2016-02-13 08:27:00,1.7,-1.8,30.44,West,261,1.0,1.0,85,0.00,,OVC009,0.00,VWS V15.00,2016-02-13 13:27:00,
2016-02-13 08:32:00,2.0,-1.5,30.44,WSW,247,0.0,3.0,85,0.00,,OVC009,0.00,VWS V15.00,2016-02-13 13:32:00,
2016-02-13 08:37:00,2.4,-1.3,30.44,WSW,248,0.0,2.0,84,0.00,,OVC009,0.00,VWS V15.00,2016-02-13 13:37:00,
2016-02-13 08:42:00,2.8,-0.9,30.44,WSW,253,1.0,3.0,84,0.00,,OVC009,0.00,VWS V15.00,2016-02-13 13:42:00,
2016-02-13 08:47:00,3.3,-0.7,30.44,WNW,284,2.0,3.0,83,0.00,,OVC009,0.00,VWS V15.00,2016-02-13 13:47:00,
2016-02-13 08:52:00,3.7,-0.3,30.45,WNW,286,1.0,3.0,83,0.00,,OVC009,0.00,VWS V15.00,2016-02-13 13:52:00,
2016-02-13 08:57:00,4.2,-0.1,30.45,NW,319,3.0,3.0,82,0.00,,OVC009,0.00,VWS V15.00,2016-02-13 13:57:00,
2016-02-13 09:02:00,4.7,0.2,30.45,WNW,282,1.0,3.0,81,0.00,,OVC009,0.00,VWS V15.00,2016-02-13 14:02:00,
2016-02-13 09:07:00,5.4,0.9,30.45,West,275,1.0,3.0,81,0.00,,OVC009,0.00,VWS V15.00,2016-02-13 14:07:00,
2016-02-13 09:12:00,6.0,1.2,30.45,West,266,2.0,3.0,80,0.00,,OVC009,0.00,VWS V15.00,2016-02-13 14:12:00,
2016-02-13 09:17:00,6.6,1.2,30.45,WSW,237,1.0,6.0,78,0.00,,OVC009,0.00,VWS V15.00,2016-02-13 14:17:00,
2016-02-13 09:27:00,7.4,1.7,30.45,NNW,329,3.0,6.0,77,0.00,,OVC009,0.00,VWS V15.00,2016-02-13 14:27:00,
2016-02-13 09:32:00,7.7,2.0,30.45,West,277,1.0,1.0,77,0.00,,OVC009,0.00,VWS V15.00,2016-02-13 14:32:00,
2016-02-13 09:37:00,8.1,2.1,30.46,NW,309,1.0,3.0,76,0.00,,OVC009,0.00,VWS V15.00,2016-02-13 14:37:00,
2016-02-13 09:42:00,8.5,2.5,30.45,WNW,289,1.0,3.0,76,0.00,,OVC009,0.00,VWS V15.00,2016-02-13 14:42:00,
2016-02-13 09:47:00,8.8,2.5,30.45,NNW,334,1.0,4.0,75,0.00,,OVC009,0.00,VWS V15.00,2016-02-13 14:47:00,
2016-02-13 09:52:00,9.1,2.8,30.45,NW,322,5.0,5.0,75,0.00,,OVC009,0.00,VWS V15.00,2016-02-13 14:52:00,
2016-02-13 09:57:00,9.5,2.9,30.46,NW,322,1.0,6.0,74,0.00,,OVC009,0.00,VWS V15.00,2016-02-13 14:57:00,
2016-02-13 10:02:00,10.0,3.4,30.46,WNW,302,2.0,2.0,74,0.00,,OVC009,0.00,VWS V15.00,2016-02-13 15:02:00,
2016-02-13 10:07:00,10.5,3.3,30.46,NW,315,3.0,6.0,72,0.00,,OVC009,0.00,VWS V15.00,2016-02-13 15:07:00,
2016-02-13 10:12:00,10.8,3.6,30.46,NE,56,4.0,6.0,72,0.00,,OVC009,0.00,VWS V15.00,2016-02-13 15:12:00,
2016-02-13 10:17:00,11.1,3.5,30.46,WNW,290,3.0,6.0,71,0.00,,OVC009,0.00,VWS V15.00,2016-02-13 15:17:00,
2016-02-13 10:22:00,11.3,3.4,30.46,NW,317,1.0,8.0,70,0.00,,OVC009,0.00,VWS V15.00,2016-02-13 15:22:00,
2016-02-13 10:32:00,11.4,3.2,30.46,NW,317,5.0,6.0,69,0.00,,OVC009,0.00,VWS V15.00,2016-02-13 15:32:00,
2016-02-13 10:42:00,11.9,3.4,30.46,NW,320,4.0,8.0,68,0.00,,OVC009,0.00,VWS V15.00,2016-02-13 15:42:00,
2016-02-13 10:47:00,12.6,4.1,30.46,NW,320,4.0,8.0,68,0.00,,OVC009,0.00,VWS V15.00,2016-02-13 15:47:00,
2016-02-13 10:57:00,13.0,3.5,30.46,NNW,334,3.0,8.0,65,0.00,,OVC009,0.00,VWS V15.00,2016-02-13 15:57:00,
2016-02-13 11:02:00,13.3,2.7,30.47,NW,325,5.0,9.0,62,0.00,,OVC009,0.00,VWS V15.00,2016-02-13 16:02:00,
2016-02-13 11:07:00,13.3,2.7,30.47,NW,310,2.0,9.0,62,0.00,,OVC009,0.00,VWS V15.00,2016-02-13 16:07:00,
2016-02-13 11:12:00,13.5,2.9,30.47,NW,315,6.0,9.0,62,0.00,,OVC009,0.00,VWS V15.00,2016-02-13 16:12:00,
2016-02-13 11:17:00,13.8,2.8,30.47,NW,317,3.0,9.0,61,0.00,,OVC009,0.00,VWS V15.00,2016-02-13 16:17:00,
2016-02-13 11:22:00,13.5,3.3,30.47,NW,311,4.0,9.0,63,0.00,,OVC009,0.00,VWS V15.00,2016-02-13 16:22:00,
2016-02-13 11:27:00,13.1,3.2,30.47,NNW,339,3.0,9.0,64,0.00,,OVC009,0.00,VWS V15.00,2016-02-13 16:27:00,
2016-02-13 11:32:00,12.5,4.0,30.47,West,275,3.0,10.0,68,0.00,,OVC009,0.00,VWS V15.00,2016-02-13 16:32:00,
2016-02-13 11:37:00,12.3,4.1,30.47,NW,312,3.0,10.0,69,0.00,,OVC009,0.00,VWS V15.00,2016-02-13 16:37:00,
2016-02-13 11:42:00,12.5,4.0,30.47,WNW,285,2.0,10.0,68,0.00,,OVC009,0.00,VWS V15.00,2016-02-13 16:42:00,
2016-02-13 11:47:00,12.8,3.6,30.47,West,270,4.0,10.0,66,0.00,,OVC009,0.00,VWS V15.00,2016-02-13 16:47:00,
2016-02-13 11:58:00,13.5,3.6,30.47,NW,316,3.0,10.0,64,0.00,,OVC009,0.00,VWS V15.00,2016-02-13 16:58:00,
2016-02-13 12:03:00,13.4,4.8,30.47,NW,312,3.0,3.0,68,0.00,,OVC009,0.00,VWS V15.00,2016-02-13 17:03:00,
2016-02-13 12:08:00,13.8,5.5,30.47,WNW,302,3.0,6.0,69,0.00,,OVC009,0.00,VWS V15.00,2016-02-13 17:08:00,
2016-02-13 12:13:00,13.9,5.9,30.47,West,273,3.0,8.0,70,0.00,,OVC009,0.00,VWS V15.00,2016-02-13 17:13:00,
2016-02-13 12:18:00,14.2,5.3,30.47,WNW,298,4.0,9.0,67,0.00,,OVC009,0.00,VWS V15.00,2016-02-13 17:18:00,
2016-02-13 12:23:00,14.3,4.7,30.47,NW,309,4.0,9.0,65,0.00,,OVC009,0.00,VWS V15.00,2016-02-13 17:23:00,
2016-02-13 12:33:00,14.4,5.1,30.47,NNE,13,5.0,5.0,66,0.00,,OVC009,0.00,VWS V15.00,2016-02-13 17:33:00,
2016-02-13 12:43:00,15.3,5.0,30.47,WNW,298,3.0,5.0,63,0.00,,OVC009,0.00,VWS V15.00,2016-02-13 17:43:00,
2016-02-13 12:48:00,15.4,4.0,30.47,NW,325,1.0,10.0,60,0.00,,OVC009,0.00,VWS V15.00,2016-02-13 17:48:00,
2016-02-13 12:58:00,14.8,3.8,30.47,NW,313,3.0,10.0,61,0.00,,OVC009,0.00,VWS V15.00,2016-02-13 17:58:00,
2016-02-13 13:03:00,14.8,4.8,30.47,WNW,290,2.0,3.0,64,0.00,,OVC009,0.00,VWS V15.00,2016-02-13 18:03:00,
2016-02-13 13:08:00,14.9,5.6,30.47,West,273,2.0,7.0,66,0.00,,OVC009,0.00,VWS V15.00,2016-02-13 18:08:00,
2016-02-13 13:13:00,14.9,4.6,30.47,NNW,327,4.0,7.0,63,0.00,,OVC009,0.00,VWS V15.00,2016-02-13 18:13:00,
2016-02-13 13:18:00,14.6,4.7,30.47,NNW,345,2.0,7.0,64,0.00,,OVC009,0.00,VWS V15.00,2016-02-13 18:18:00,
2016-02-13 13:23:00,14.8,3.8,30.46,NW,315,2.0,7.0,61,0.00,,OVC009,0.00,VWS V15.00,2016-02-13 18:23:00,
2016-02-13 13:28:00,14.9,3.5,30.47,NW,309,3.0,7.0,60,0.00,,OVC009,0.00,VWS V15.00,2016-02-13 18:28:00,
2016-02-13 13:33:00,14.6,6.0,30.46,WNW,302,1.0,4.0,68,0.00,,OVC009,0.00,VWS V15.00,2016-02-13 18:33:00,
2016-02-13 13:38:00,14.5,6.8,30.46,NNW,338,2.0,4.0,71,0.00,,OVC009,0.00,VWS V15.00,2016-02-13 18:38:00,
2016-02-13 13:43:00,14.8,7.1,30.46,NNW,333,2.0,4.0,71,0.00,,OVC009,0.00,VWS V15.00,2016-02-13 18:43:00,
2016-02-13 13:48:00,15.1,4.4,30.46,WNW,298,4.0,9.0,62,0.00,,OVC009,0.00,VWS V15.00,2016-02-13 18:48:00,
2016-02-13 13:58:00,15.0,4.0,30.47,West,275,6.0,12.0,61,0.00,,OVC009,0.00,VWS V15.00,2016-02-13 18:58:00,
2016-02-13 14:03:00,15.3,3.2,30.46,West,277,4.0,7.0,58,0.00,,OVC009,0.00,VWS V15.00,2016-02-13 19:03:00,
2016-02-13 14:08:00,15.2,3.5,30.46,West,269,4.0,7.0,59,0.00,,OVC009,0.00,VWS V15.00,2016-02-13 19:08:00,
2016-02-13 14:13:00,14.9,2.0,30.46,WNW,302,2.0,7.0,56,0.00,,OVC009,0.00,VWS V15.00,2016-02-13 19:13:00,
2016-02-13 14:18:00,14.6,2.2,30.46,West,261,6.0,9.0,57,0.00,,OVC009,0.00,VWS V15.00,2016-02-13 19:18:00,
2016-02-13 14:23:00,14.6,2.5,30.46,NNW,337,3.0,9.0,58,0.00,,OVC009,0.00,VWS V15.00,2016-02-13 19:23:00,
2016-02-13 14:29:00,15.4,4.0,30.45,NW,324,8.0,9.0,60,0.00,,OVC009,0.00,VWS V15.00,2016-02-13 19:29:00,
2016-02-13 14:34:00,15.7,3.9,30.46,WSW,240,4.0,11.0,59,0.00,,OVC009,0.00,VWS V15.00,2016-02-13 19:34:00,
2016-02-13 14:39:00,15.7,3.9,30.46,West,279,2.0,11.0,59,0.00,,OVC009,0.00,VWS V15.00,2016-02-13 19:39:00,
2016-02-13 14:44:00,15.7,4.3,30.46,WNW,286,3.0,11.0,60,0.00,,OVC009,0.00,VWS V15.00,2016-02-13 19:44:00,
2016-02-13 14:49:00,15.5,4.1,30.46,WNW,294,2.0,11.0,60,0.00,,OVC009,0.00,VWS V15.00,2016-02-13 19:49:00,
2016-02-13 14:54:00,15.4,2.5,30.46,NNW,343,2.0,11.0,56,0.00,,OVC009,0.00,VWS V15.00,2016-02-13 19:54:00,
2016-02-13 14:59:00,15.1,3.4,30.46,West,267,2.0,11.0,59,0.00,,OVC009,0.00,VWS V15.00,2016-02-13 19:59:00,
2016-02-13 15:04:00,14.6,5.7,30.46,NNW,333,4.0,4.0,67,0.00,,OVC009,0.00,VWS V15.00,2016-02-13 20:04:00,
2016-02-13 15:09:00,14.1,5.5,30.46,NW,313,1.0,9.0,68,0.00,,OVC009,0.00,VWS V15.00,2016-02-13 20:09:00,
2016-02-13 15:14:00,14.0,5.4,30.46,West,274,0.0,9.0,68,0.00,,OVC009,0.00,VWS V15.00,2016-02-13 20:14:00,
2016-02-13 15:19:00,14.4,5.5,30.46,West,267,2.0,9.0,67,0.00,,OVC009,0.00,VWS V15.00,2016-02-13 20:19:00,